Cahokia, IL

4:11 AM CST on December 09, 2019 (GMT -0600)
Saint Louis Downtown

Weather History for KCPS - October, 2019

Change the Weather History Date:

Thursday, October 10, 2019

  Actual Average Record
Temperature  
Mean Temperature 70 °F -  
Max Temperature 79 °F 61 °F 91 °F (1963)
Min Temperature 62 °F 46 °F 27 °F (2000)
Cooling Degree Days 5    
Growing Degree Days 20 (Base 50)    
Moisture  
Dew Point 61 °F    
Average Humidity 81    
Maximum Humidity 96    
Minimum Humidity 60    
Precipitation  
Precipitation 0.87 in - - ()
Sea Level Pressure  
Sea Level Pressure 29.94 in    
Wind  
Wind Speed 7 mph (SSE)    
Max Wind Speed 13 mph    
Max Gust Speed -    
Visibility 8 miles    
Events Rain , Thunderstorm    
Averages and records for this station are not official NWS values.
T = Trace of Precipitation, MM = Missing Value Source: NWS Daily Summary

Daily Weather History Graph

Daily Weather History Graph

Search for Another Location

Airport or City:

Astronomy

Oct. 10, 2019 Rise Set
Actual Time 7:04 AM CDT 6:30 PM CDT
Civil Twilight 6:38 AM CDT 6:56 PM CDT
Nautical Twilight 6:07 AM CDT 7:27 PM CDT
Astronomical Twilight 5:36 AM CDT 7:57 PM CDT
Moon 5:28 PM CDT (10/10) 3:51 AM CDT (10/10)
Length of Visible Light 12h 18m
Length of Day
11h 25m
Waxing Gibbous, 91% of the Moon is Illuminated
Oct 10
Waxing Gibbous
Oct 13
Full
Oct 21
Last Quarter
Oct 27
New
Nov 4
First Quarter

Hourly Weather History & Observations

Time (CDT) Temp. Dew Point Humidity Pressure Visibility Wind Dir Wind Speed Gust Speed Precip Events Conditions
12:53 AM 64.9 °F 51.1 °F 61% 29.98 in 10.0 mi SE 8.1 mph - N/A   Clear
1:53 AM 64.0 °F 52.0 °F 65% 29.99 in 10.0 mi SE 8.1 mph - N/A   Clear
2:53 AM 63.0 °F 53.1 °F 70% 30.00 in 10.0 mi SSE 4.6 mph - N/A   Clear
3:53 AM 63.0 °F 54.0 °F 72% 29.99 in 10.0 mi SE 9.2 mph - N/A   Partly Cloudy
4:53 AM 62.1 °F 54.0 °F 75% 29.97 in 10.0 mi SE 9.2 mph - N/A   Clear
5:53 AM 62.1 °F 55.0 °F 78% 29.95 in 10.0 mi SE 11.5 mph - N/A   Clear
6:53 AM 62.1 °F 55.0 °F 78% 29.96 in 10.0 mi SE 10.4 mph - N/A   Clear
7:53 AM 63.0 °F 55.9 °F 78% 29.99 in 10.0 mi Variable 4.6 mph - N/A   Partly Cloudy
8:53 AM 63.0 °F 55.9 °F 78% 30.00 in 10.0 mi SE 6.9 mph - N/A   Partly Cloudy
9:53 AM 64.0 °F 57.9 °F 80% 29.98 in 10.0 mi SSE 8.1 mph - 0.00 in   Scattered Clouds
10:53 AM 64.9 °F 59.0 °F 81% 29.99 in 10.0 mi SSE 6.9 mph - N/A   Mostly Cloudy
11:53 AM 68.0 °F 60.1 °F 76% 29.98 in 10.0 mi ESE 8.1 mph - N/A   Partly Cloudy
12:53 PM 71.1 °F 62.1 °F 73% 29.94 in 10.0 mi ENE 5.8 mph - 0.00 in Rain Light Rain
1:53 PM 78.1 °F 63.0 °F 60% 29.91 in 10.0 mi SSE 8.1 mph - 0.00 in   Mostly Cloudy
2:53 PM 77.0 °F 64.0 °F 64% 29.90 in 10.0 mi South 8.1 mph - 0.00 in Rain Light Rain
3:53 PM 75.0 °F 64.9 °F 71% 29.89 in 10.0 mi SSE 6.9 mph - 0.00 in Rain Light Rain
4:50 PM 71.6 °F 66.2 °F 83% 29.92 in 1.5 mi West 4.6 mph - 0.10 in Rain Heavy Rain
4:53 PM 71.1 °F 66.9 °F 87% 29.92 in 1.5 mi Calm Calm - 0.11 in Rain Heavy Rain
5:05 PM 70.0 °F 66.9 °F 90% 29.91 in 1.8 mi SE 6.9 mph - 0.09 in Rain , Thunderstorm Heavy Thunderstorms and Rain
5:21 PM 69.1 °F 66.9 °F 93% 29.91 in 3.0 mi Calm Calm - 0.13 in Rain Light Rain
5:53 PM 69.1 °F 66.9 °F 93% 29.93 in 3.0 mi WSW 4.6 mph - 0.31 in Rain Heavy Rain
6:48 PM 69.8 °F 66.2 °F 88% 29.91 in 6.0 mi South 4.6 mph - 0.23 in Rain , Thunderstorm Light Thunderstorms and Rain
6:53 PM 69.1 °F 68.0 °F 96% 29.90 in 4.0 mi Variable 3.5 mph - 0.24 in Rain , Thunderstorm Light Thunderstorms and Rain
7:41 PM 68.0 °F 64.0 °F 87% 29.89 in 10.0 mi SSE 11.5 mph - 0.06 in Rain Light Rain
7:53 PM 68.0 °F 64.0 °F 87% 29.88 in 10.0 mi SSE 4.6 mph - 0.06 in   Overcast
8:53 PM 66.9 °F 64.0 °F 90% 29.88 in 10.0 mi ESE 6.9 mph - 0.00 in   Overcast
9:53 PM 68.0 °F 64.9 °F 90% 29.91 in 10.0 mi SSE 5.8 mph - N/A   Overcast
10:53 PM 68.0 °F 64.9 °F 90% 29.92 in 10.0 mi Calm Calm - 0.00 in Rain Light Rain
11:42 PM 66.9 °F 64.9 °F 93% 29.93 in 7.0 mi WSW 4.6 mph - 0.01 in Rain , Thunderstorm Light Thunderstorms and Rain
11:53 PM 66.9 °F 64.9 °F 93% 29.89 in 1.8 mi ESE 6.9 mph - 0.15 in Rain , Thunderstorm Heavy Thunderstorms and Rain
11:59 PM 66.9 °F 64.9 °F 93% 29.90 in 2.5 mi ESE 12.7 mph - 0.00 in Rain , Thunderstorm Light Thunderstorms and Rain